Location: Alfortville
(48.8058°N, 2.4204°E)
Time: 16:58:56
(UTC+00:00)

AO-85 - Visible Passes

Search period start: 15 April 2024 00:00
Search period end: 25 April 2024 00:00
Orbit: 516 x 753 km, 64.8° (Epoch: 04 January)

Date Brightness Start Highest point End Pass type
(mag) Time Alt. Az. Time Alt. Az. Time Alt. Az.
15 Apr ? 00:27:42 18° ENE 00:27:42 18° ENE 00:29:08 10° ENE visible
15 Apr ? 02:04:54 44° NW 02:05:05 45° NW 02:09:32 10° NNE visible
15 Apr ? 03:43:35 10° NW 03:46:17 15° NNW 03:49:05 10° NNE visible
16 Apr ? 00:45:47 31° ENE 00:45:47 31° ENE 00:48:21 10° NE visible
16 Apr ? 02:22:59 24° WNW 02:24:13 28° NW 02:28:15 10° NNE visible
16 Apr ? 04:03:45 10° NW 04:05:47 13° N 04:07:54 10° NNE visible
17 Apr ? 01:03:50 48° NNE 01:03:50 48° NNE 01:07:17 10° NE visible
17 Apr ? 02:41:02 13° WNW 02:43:30 20° NNW 02:46:55 10° NNE visible
17 Apr ? 04:23:41 10° NNW 04:25:21 12° N 04:27:03 10° NNE visible
17 Apr ? 23:44:38 16° ENE 23:44:38 16° ENE 23:45:45 10° NE visible
18 Apr ? 01:21:50 41° NW 01:21:50 41° NW 01:26:04 10° NNE visible
18 Apr ? 03:00:16 10° NW 03:02:54 15° NNW 03:05:37 10° NNE visible
19 Apr ? 00:02:36 28° NE 00:02:36 28° NE 00:04:53 10° NE visible
19 Apr ? 01:39:48 25° NW 01:40:46 27° NNW 01:44:45 10° NNE visible
19 Apr ? 03:20:23 10° NW 03:22:23 12° N 03:24:26 10° NNE visible
20 Apr ? 00:20:30 43° NNE 00:20:30 43° NNE 00:23:46 10° NE visible
20 Apr ? 01:57:42 13° WNW 02:00:02 19° NNW 02:03:24 10° NNE visible
20 Apr ? 03:40:14 10° NNW 03:41:56 12° N 03:43:38 10° NNE visible
20 Apr ? 23:01:10 16° ENE 23:01:10 16° ENE 23:02:16 10° NE visible
21 Apr ? 00:38:21 39° NNW 00:38:21 39° NNW 00:42:31 10° NNE visible
21 Apr ? 02:16:53 10° NW 02:19:27 15° NNW 02:22:05 10° NNE visible
21 Apr ? 03:59:31 10° NNW 04:01:28 12° N 04:03:28 10° NNE visible
21 Apr ? 23:18:57 30° NE 23:18:57 30° NE 23:21:21 10° NE visible
22 Apr ? 00:56:08 23° WNW 00:57:15 25° NNW 01:01:11 10° NNE visible
22 Apr ? 02:36:58 10° NNW 02:38:55 12° N 02:40:55 10° NNE visible
22 Apr ? 23:36:40 47° N 23:36:40 47° N 23:40:12 10° NE visible
23 Apr ? 01:13:50 12° WNW 01:16:31 18° NNW 01:19:49 10° NNE visible
23 Apr ? 02:56:44 10° NNW 02:58:26 12° N 03:00:11 10° NNE visible
23 Apr ? 22:17:06 20° ENE 22:17:06 20° ENE 22:18:44 10° NE visible
23 Apr ? 23:54:16 36° NW 23:54:33 37° NW 23:58:55 10° NNE visible
24 Apr ? 01:33:26 10° NW 01:35:55 14° NNW 01:38:29 10° NNE visible
24 Apr ? 03:15:54 10° NNW 03:17:57 12° N 03:20:03 10° NE visible
24 Apr ? 22:34:34 42° NE 22:34:34 42° NE 22:37:45 10° NE visible
